Time,TemperatureF,DewpointF,PressureIn,WindDirection,WindDirectionDegrees,WindSpeedMPH,WindSpeedGustMPH,Humidity,HourlyPrecipIn,Conditions,Clouds,dailyrainin,SoftwareType,DateUTC
2013-03-14 00:00:00,27.3,21.6,30.38,WNW,290,3.0,4.0,79,0.00,,,0.00,Wunderground v.1.15,2013-03-14 04:00:00,
2013-03-14 00:01:00,27.3,21.6,30.38,WNW,283,3.0,5.0,79,0.00,,,0.00,Wunderground v.1.15,2013-03-14 04:01:00,
2013-03-14 00:02:00,27.3,21.6,30.38,NW,306,3.0,5.0,79,0.00,,,0.00,Wunderground v.1.15,2013-03-14 04:02:00,
2013-03-14 00:03:00,27.3,21.6,30.38,WNW,295,3.0,5.0,79,0.00,,,0.00,Wunderground v.1.15,2013-03-14 04:03:00,
2013-03-14 00:09:00,27.2,21.8,30.38,West,279,4.0,7.0,80,0.00,,,0.00,Wunderground v.1.15,2013-03-14 04:09:00,
2013-03-14 00:14:00,27.1,21.7,30.38,WSW,252,3.0,4.0,80,0.00,,,0.00,Wunderground v.1.15,2013-03-14 04:14:00,
2013-03-14 00:20:00,27.0,21.9,30.38,West,274,3.0,3.0,81,0.00,,,0.00,Wunderground v.1.15,2013-03-14 04:20:00,
2013-03-14 00:27:00,26.8,21.8,30.39,West,276,3.0,4.0,81,0.00,,,0.00,Wunderground v.1.15,2013-03-14 04:27:00,
2013-03-14 00:34:00,26.7,21.7,30.38,WNW,291,3.0,3.0,81,0.00,,,0.00,Wunderground v.1.15,2013-03-14 04:34:00,
2013-03-14 00:39:00,26.6,21.8,30.38,WNW,293,3.0,4.0,82,0.00,,,0.00,Wunderground v.1.15,2013-03-14 04:39:00,
2013-03-14 00:45:00,26.4,21.7,30.38,West,263,2.0,4.0,82,0.00,,,0.00,Wunderground v.1.15,2013-03-14 04:45:00,
2013-03-14 00:50:00,26.3,21.6,30.38,WSW,246,2.0,3.0,82,0.00,,,0.00,Wunderground v.1.15,2013-03-14 04:50:00,
2013-03-14 00:55:00,26.1,21.4,30.38,West,261,2.0,3.0,82,0.00,,,0.00,Wunderground v.1.15,2013-03-14 04:55:00,
2013-03-14 01:00:00,25.9,21.4,30.38,West,278,1.0,1.0,83,0.00,,,0.00,Wunderground v.1.15,2013-03-14 05:00:00,
2013-03-14 01:06:00,25.7,21.3,30.38,WSW,243,1.0,3.0,83,0.00,,,0.00,Wunderground v.1.15,2013-03-14 05:06:00,
2013-03-14 01:11:00,25.7,21.3,30.39,West,263,2.0,2.0,83,0.00,,,0.00,Wunderground v.1.15,2013-03-14 05:11:00,
2013-03-14 01:16:00,25.6,21.2,30.39,West,260,2.0,3.0,83,0.00,,,0.00,Wunderground v.1.15,2013-03-14 05:16:00,
2013-03-14 01:22:00,25.5,21.1,30.39,WSW,255,2.0,2.0,83,0.00,,,0.00,Wunderground v.1.15,2013-03-14 05:22:00,
2013-03-14 01:27:00,25.4,21.2,30.39,West,280,1.0,2.0,84,0.00,,,0.00,Wunderground v.1.15,2013-03-14 05:27:00,
2013-03-14 01:32:00,25.3,21.1,30.39,West,271,1.0,3.0,84,0.00,,,0.00,Wunderground v.1.15,2013-03-14 05:32:00,
2013-03-14 01:38:00,25.3,21.1,30.39,WNW,291,2.0,4.0,84,0.00,,,0.00,Wunderground v.1.15,2013-03-14 05:38:00,
2013-03-14 01:44:00,25.3,21.1,30.39,West,265,2.0,3.0,84,0.00,,,0.00,Wunderground v.1.15,2013-03-14 05:44:00,
2013-03-14 01:50:00,25.3,21.1,30.39,West,278,3.0,3.0,84,0.00,,,0.00,Wunderground v.1.15,2013-03-14 05:50:00,
2013-03-14 01:56:00,25.2,21.0,30.39,West,276,2.0,4.0,84,0.00,,,0.00,Wunderground v.1.15,2013-03-14 05:56:00,
2013-03-14 02:02:00,25.1,20.9,30.39,West,271,2.0,2.0,84,0.00,,,0.00,Wunderground v.1.15,2013-03-14 06:02:00,
2013-03-14 02:08:00,25.0,20.8,30.39,WNW,297,2.0,3.0,84,0.00,,,0.00,Wunderground v.1.15,2013-03-14 06:08:00,
2013-03-14 02:14:00,25.1,20.9,30.40,West,280,3.0,4.0,84,0.00,,,0.00,Wunderground v.1.15,2013-03-14 06:14:00,
2013-03-14 02:20:00,25.0,20.8,30.40,West,274,3.0,3.0,84,0.00,,,0.00,Wunderground v.1.15,2013-03-14 06:20:00,
2013-03-14 02:25:00,24.9,20.8,30.39,West,265,2.0,4.0,84,0.00,,,0.00,Wunderground v.1.15,2013-03-14 06:25:00,
2013-03-14 02:30:00,24.7,20.6,30.39,West,269,2.0,2.0,84,0.00,,,0.00,Wunderground v.1.15,2013-03-14 06:30:00,
2013-03-14 02:36:00,24.7,20.6,30.40,WSW,249,2.0,3.0,84,0.00,,,0.00,Wunderground v.1.15,2013-03-14 06:36:00,
2013-03-14 02:42:00,24.6,20.5,30.39,WSW,255,2.0,3.0,84,0.00,,,0.00,Wunderground v.1.15,2013-03-14 06:42:00,
2013-03-14 02:47:00,24.6,20.5,30.39,WSW,248,2.0,4.0,84,0.00,,,0.00,Wunderground v.1.15,2013-03-14 06:47:00,
2013-03-14 02:53:00,24.6,20.5,30.39,West,274,2.0,5.0,84,0.00,,,0.00,Wunderground v.1.15,2013-03-14 06:53:00,
2013-03-14 02:58:00,24.6,20.5,30.39,West,259,2.0,5.0,84,0.00,,,0.00,Wunderground v.1.15,2013-03-14 06:58:00,
2013-03-14 03:04:00,24.6,20.5,30.39,West,270,3.0,3.0,84,0.00,,,0.00,Wunderground v.1.15,2013-03-14 07:04:00,
2013-03-14 03:09:00,24.6,20.5,30.39,WSW,255,3.0,3.0,84,0.00,,,0.00,Wunderground v.1.15,2013-03-14 07:09:00,
2013-03-14 03:15:00,24.5,20.4,30.39,West,266,2.0,3.0,84,0.00,,,0.00,Wunderground v.1.15,2013-03-14 07:15:00,
2013-03-14 03:20:00,24.5,20.4,30.39,West,262,2.0,2.0,84,0.00,,,0.00,Wunderground v.1.15,2013-03-14 07:20:00,
2013-03-14 03:25:00,24.4,20.3,30.39,West,274,2.0,2.0,84,0.00,,,0.00,Wunderground v.1.15,2013-03-14 07:25:00,
2013-03-14 03:31:00,24.3,20.2,30.39,West,269,2.0,3.0,84,0.00,,,0.00,Wunderground v.1.15,2013-03-14 07:31:00,
2013-03-14 03:37:00,24.2,20.1,30.39,West,273,2.0,3.0,84,0.00,,,0.00,Wunderground v.1.15,2013-03-14 07:37:00,
2013-03-14 03:42:00,24.0,20.1,30.39,WSW,257,2.0,2.0,85,0.00,,,0.00,Wunderground v.1.15,2013-03-14 07:42:00,
2013-03-14 03:48:00,23.9,20.0,30.39,West,276,2.0,2.0,85,0.00,,,0.00,Wunderground v.1.15,2013-03-14 07:48:00,
2013-03-14 03:53:00,23.9,20.0,30.39,West,266,2.0,4.0,85,0.00,,,0.00,Wunderground v.1.15,2013-03-14 07:53:00,
2013-03-14 03:59:00,23.8,19.9,30.39,West,267,2.0,4.0,85,0.00,,,0.00,Wunderground v.1.15,2013-03-14 07:59:00,
2013-03-14 04:05:00,23.8,19.9,30.39,West,269,1.0,3.0,85,0.00,,,0.00,Wunderground v.1.15,2013-03-14 08:05:00,
2013-03-14 04:11:00,23.7,19.9,30.38,West,271,1.0,2.0,85,0.00,,,0.00,Wunderground v.1.15,2013-03-14 08:11:00,
2013-03-14 04:16:00,23.6,19.8,30.38,WSW,252,1.0,2.0,85,0.00,,,0.00,Wunderground v.1.15,2013-03-14 08:16:00,
2013-03-14 04:22:00,23.6,19.8,30.38,WSW,253,1.0,3.0,85,0.00,,,0.00,Wunderground v.1.15,2013-03-14 08:22:00,
2013-03-14 04:28:00,23.5,19.7,30.38,West,267,2.0,3.0,85,0.00,,,0.00,Wunderground v.1.15,2013-03-14 08:28:00,
2013-03-14 04:33:00,23.4,19.6,30.38,West,271,1.0,2.0,85,0.00,,,0.00,Wunderground v.1.15,2013-03-14 08:33:00,
2013-03-14 04:39:00,23.4,19.6,30.39,West,265,1.0,3.0,85,0.00,,,0.00,Wunderground v.1.15,2013-03-14 08:39:00,
2013-03-14 04:44:00,23.4,19.6,30.39,West,271,2.0,4.0,85,0.00,,,0.00,Wunderground v.1.15,2013-03-14 08:44:00,
2013-03-14 04:50:00,23.4,19.6,30.39,West,259,2.0,3.0,85,0.00,,,0.00,Wunderground v.1.15,2013-03-14 08:50:00,
2013-03-14 04:55:00,23.5,19.7,30.39,WSW,252,2.0,3.0,85,0.00,,,0.00,Wunderground v.1.15,2013-03-14 08:55:00,
2013-03-14 05:00:00,23.5,19.4,30.39,WNW,282,2.0,3.0,84,0.00,,,0.00,Wunderground v.1.15,2013-03-14 09:00:00,
2013-03-14 05:06:00,23.5,19.4,30.38,West,269,1.0,3.0,84,0.00,,,0.00,Wunderground v.1.15,2013-03-14 09:06:00,
2013-03-14 05:12:00,23.4,19.3,30.39,West,269,1.0,2.0,84,0.00,,,0.00,Wunderground v.1.15,2013-03-14 09:12:00,
2013-03-14 05:18:00,23.4,19.6,30.39,WNW,284,2.0,3.0,85,0.00,,,0.00,Wunderground v.1.15,2013-03-14 09:18:00,
2013-03-14 05:24:00,23.3,19.5,30.39,West,273,2.0,2.0,85,0.00,,,0.00,Wunderground v.1.15,2013-03-14 09:24:00,
2013-03-14 05:30:00,23.2,19.4,30.39,WSW,256,2.0,3.0,85,0.00,,,0.00,Wunderground v.1.15,2013-03-14 09:30:00,
2013-03-14 05:35:00,23.3,19.5,30.39,West,262,2.0,3.0,85,0.00,,,0.00,Wunderground v.1.15,2013-03-14 09:35:00,
2013-03-14 05:40:00,23.3,19.5,30.39,WNW,285,2.0,2.0,85,0.00,,,0.00,Wunderground v.1.15,2013-03-14 09:40:00,
2013-03-14 05:46:00,23.3,19.5,30.40,WNW,293,2.0,3.0,85,0.00,,,0.00,Wunderground v.1.15,2013-03-14 09:46:00,
2013-03-14 05:52:00,23.3,19.5,30.40,West,269,3.0,3.0,85,0.00,,,0.00,Wunderground v.1.15,2013-03-14 09:52:00,
2013-03-14 05:57:00,23.3,19.5,30.40,West,279,3.0,5.0,85,0.00,,,0.00,Wunderground v.1.15,2013-03-14 09:57:00,
2013-03-14 06:02:00,23.2,19.4,30.40,WSW,252,2.0,3.0,85,0.00,,,0.00,Wunderground v.1.15,2013-03-14 10:02:00,
2013-03-14 06:08:00,23.2,19.4,30.40,West,281,2.0,3.0,85,0.00,,,0.00,Wunderground v.1.15,2013-03-14 10:08:00,
2013-03-14 06:14:00,23.0,19.2,30.41,West,270,2.0,2.0,85,0.00,,,0.00,Wunderground v.1.15,2013-03-14 10:14:00,
2013-03-14 06:20:00,22.9,19.1,30.40,West,274,1.0,1.0,85,0.00,,,0.00,Wunderground v.1.15,2013-03-14 10:20:00,
2013-03-14 06:25:00,22.7,19.1,30.41,West,271,0.0,1.0,86,0.00,,,0.00,Wunderground v.1.15,2013-03-14 10:25:00,
2013-03-14 06:31:00,22.4,18.8,30.40,West,278,0.0,1.0,86,0.00,,,0.00,Wunderground v.1.15,2013-03-14 10:31:00,
2013-03-14 06:37:00,22.2,18.7,30.41,WNW,282,0.0,1.0,86,0.00,,,0.00,Wunderground v.1.15,2013-03-14 10:37:00,
2013-03-14 06:42:00,22.0,18.7,30.41,West,272,0.0,0.0,87,0.00,,,0.00,Wunderground v.1.15,2013-03-14 10:42:00,
2013-03-14 06:48:00,21.9,18.6,30.41,West,274,0.0,1.0,87,0.00,,,0.00,Wunderground v.1.15,2013-03-14 10:48:00,
2013-03-14 06:54:00,21.8,18.5,30.42,West,270,0.0,1.0,87,0.00,,,0.00,Wunderground v.1.15,2013-03-14 10:54:00,
2013-03-14 06:59:00,21.9,18.6,30.42,West,267,0.0,1.0,87,0.00,,,0.00,Wunderground v.1.15,2013-03-14 10:59:00,
2013-03-14 07:05:00,21.9,18.6,30.42,West,260,1.0,1.0,87,0.00,,,0.00,Wunderground v.1.15,2013-03-14 11:05:00,
2013-03-14 07:15:00,21.7,18.4,30.41,West,263,0.0,0.0,87,0.00,,,0.00,Wunderground v.1.15,2013-03-14 11:15:00,
2013-03-14 07:21:00,21.7,18.7,30.41,WNW,282,0.0,1.0,88,0.00,,,0.00,Wunderground v.1.15,2013-03-14 11:21:00,
2013-03-14 07:27:00,21.5,18.2,30.41,WSW,257,0.0,0.0,87,0.00,,,0.00,Wunderground v.1.15,2013-03-14 11:27:00,
2013-03-14 07:33:00,21.3,18.3,30.41,SW,236,0.0,0.0,88,0.00,,,0.00,Wunderground v.1.15,2013-03-14 11:33:00,
2013-03-14 07:39:00,20.9,17.6,30.41,SW,236,0.0,0.0,87,0.00,,,0.00,Wunderground v.1.15,2013-03-14 11:39:00,
2013-03-14 07:45:00,20.2,17.2,30.41,SW,236,0.0,0.0,88,0.00,,,0.00,Wunderground v.1.15,2013-03-14 11:45:00,
2013-03-14 07:51:00,19.5,16.8,30.41,SSW,206,0.0,0.0,89,0.00,,,0.00,Wunderground v.1.15,2013-03-14 11:51:00,
2013-03-14 07:56:00,19.3,17.1,30.41,SSW,201,0.0,0.0,91,0.00,,,0.00,Wunderground v.1.15,2013-03-14 11:56:00,
2013-03-14 08:02:00,19.3,17.1,30.41,SSW,201,0.0,0.0,91,0.00,,,0.00,Wunderground v.1.15,2013-03-14 12:02:00,
2013-03-14 08:07:00,19.5,17.3,30.41,SSW,207,0.0,0.0,91,0.00,,,0.00,Wunderground v.1.15,2013-03-14 12:07:00,
2013-03-14 08:13:00,19.9,18.0,30.41,SSW,207,0.0,0.0,92,0.00,,,0.00,Wunderground v.1.15,2013-03-14 12:13:00,
2013-03-14 08:18:00,20.2,18.2,30.41,SW,226,0.0,0.0,92,0.00,,,0.00,Wunderground v.1.15,2013-03-14 12:18:00,
2013-03-14 08:24:00,20.9,18.7,30.41,SW,235,0.0,0.0,91,0.00,,,0.00,Wunderground v.1.15,2013-03-14 12:24:00,
2013-03-14 08:29:00,21.7,19.5,30.42,SW,235,0.0,0.0,91,0.00,,,0.00,Wunderground v.1.15,2013-03-14 12:29:00,
2013-03-14 08:35:00,22.5,20.0,30.42,SW,235,0.0,1.0,90,0.00,,,0.00,Wunderground v.1.15,2013-03-14 12:35:00,
2013-03-14 08:40:00,22.8,19.8,30.42,SW,232,0.0,2.0,88,0.00,,,0.00,Wunderground v.1.15,2013-03-14 12:40:00,
2013-03-14 08:46:00,23.1,20.1,30.42,SSW,201,0.0,2.0,88,0.00,,,0.00,Wunderground v.1.15,2013-03-14 12:46:00,
2013-03-14 08:52:00,23.7,20.4,30.42,WSW,243,0.0,1.0,87,0.00,,,0.00,Wunderground v.1.15,2013-03-14 12:52:00,
2013-03-14 08:57:00,24.3,21.0,30.42,WSW,248,0.0,1.0,87,0.00,,,0.00,Wunderground v.1.15,2013-03-14 12:57:00,
2013-03-14 09:03:00,24.9,21.3,30.42,West,259,2.0,3.0,86,0.00,,,0.00,Wunderground v.1.15,2013-03-14 13:03:00,
2013-03-14 09:09:00,25.5,21.3,30.42,West,267,3.0,3.0,84,0.00,,,0.00,Wunderground v.1.15,2013-03-14 13:09:00,
2013-03-14 09:15:00,25.9,21.2,30.42,WNW,288,3.0,4.0,82,0.00,,,0.00,Wunderground v.1.15,2013-03-14 13:15:00,
2013-03-14 09:21:00,26.3,21.6,30.42,West,276,3.0,3.0,82,0.00,,,0.00,Wunderground v.1.15,2013-03-14 13:21:00,
2013-03-14 09:26:00,26.6,21.6,30.42,West,259,3.0,4.0,81,0.00,,,0.00,Wunderground v.1.15,2013-03-14 13:26:00,
2013-03-14 09:31:00,26.9,21.8,30.42,WSW,253,3.0,3.0,81,0.00,,,0.00,Wunderground v.1.15,2013-03-14 13:31:00,
2013-03-14 09:36:00,27.3,22.2,30.42,WNW,290,3.0,4.0,81,0.00,,,0.00,Wunderground v.1.15,2013-03-14 13:36:00,
2013-03-14 09:42:00,27.7,22.3,30.42,WNW,293,3.0,4.0,80,0.00,,,0.00,Wunderground v.1.15,2013-03-14 13:42:00,
2013-03-14 09:48:00,28.0,22.0,30.42,West,270,3.0,4.0,78,0.00,,,0.00,Wunderground v.1.15,2013-03-14 13:48:00,
2013-03-14 09:54:00,28.3,22.0,30.43,WSW,253,4.0,4.0,77,0.00,,,0.00,Wunderground v.1.15,2013-03-14 13:54:00,
2013-03-14 09:59:00,28.5,22.2,30.43,West,271,4.0,5.0,77,0.00,,,0.00,Wunderground v.1.15,2013-03-14 13:59:00,
2013-03-14 10:05:00,28.9,22.3,30.42,WSW,243,3.0,4.0,76,0.00,,,0.00,Wunderground v.1.15,2013-03-14 14:05:00,
2013-03-14 10:11:00,29.3,22.4,30.42,WSW,251,2.0,4.0,75,0.00,,,0.00,Wunderground v.1.15,2013-03-14 14:11:00,
2013-03-14 10:17:00,29.6,22.0,30.42,WSW,242,2.0,4.0,73,0.00,,,0.00,Wunderground v.1.15,2013-03-14 14:17:00,
2013-03-14 10:23:00,30.1,22.2,30.42,West,276,2.0,5.0,72,0.00,,,0.00,Wunderground v.1.15,2013-03-14 14:23:00,
2013-03-14 10:29:00,30.4,21.8,30.43,West,276,3.0,5.0,70,0.00,,,0.00,Wunderground v.1.15,2013-03-14 14:29:00,
2013-03-14 10:35:00,31.1,22.8,30.42,West,259,2.0,4.0,71,0.00,,,0.00,Wunderground v.1.15,2013-03-14 14:35:00,
2013-03-14 10:40:00,31.4,22.1,30.42,WSW,257,2.0,4.0,68,0.00,,,0.00,Wunderground v.1.15,2013-03-14 14:40:00,
2013-03-14 10:46:00,32.1,22.7,30.42,WSW,250,1.0,4.0,68,0.00,,,0.00,Wunderground v.1.15,2013-03-14 14:46:00,
2013-03-14 10:52:00,31.9,21.8,30.42,WSW,257,3.0,6.0,66,0.00,,,0.00,Wunderground v.1.15,2013-03-14 14:52:00,
2013-03-14 10:58:00,31.9,21.1,30.42,West,271,3.0,6.0,64,0.00,,,0.00,Wunderground v.1.15,2013-03-14 14:58:00,
2013-03-14 11:03:00,31.8,20.6,30.42,WSW,256,3.0,6.0,63,0.00,,,0.00,Wunderground v.1.15,2013-03-14 15:03:00,
2013-03-14 11:09:00,32.2,22.1,30.42,SSW,208,3.0,6.0,66,0.00,,,0.00,Wunderground v.1.15,2013-03-14 15:09:00,
2013-03-14 11:15:00,32.3,21.1,30.42,WSW,243,3.0,6.0,63,0.00,,,0.00,Wunderground v.1.15,2013-03-14 15:15:00,
2013-03-14 11:21:00,32.8,20.8,30.42,WSW,257,4.0,4.0,61,0.00,,,0.00,Wunderground v.1.15,2013-03-14 15:21:00,
2013-03-14 11:27:00,32.7,20.3,30.43,WNW,302,4.0,6.0,60,0.00,,,0.00,Wunderground v.1.15,2013-03-14 15:27:00,
2013-03-14 11:33:00,33.0,21.4,30.42,WSW,243,5.0,6.0,62,0.00,,,0.00,Wunderground v.1.15,2013-03-14 15:33:00,
2013-03-14 11:39:00,33.4,19.8,30.42,WNW,282,5.0,7.0,57,0.00,,,0.00,Wunderground v.1.15,2013-03-14 15:39:00,
2013-03-14 11:44:00,33.3,20.5,30.42,West,259,5.0,6.0,59,0.00,,,0.00,Wunderground v.1.15,2013-03-14 15:44:00,
2013-03-14 11:50:00,34.0,20.3,30.42,WSW,250,4.0,4.0,57,0.00,,,0.00,Wunderground v.1.15,2013-03-14 15:50:00,
2013-03-14 11:56:00,34.1,19.2,30.41,West,281,4.0,7.0,54,0.00,,,0.00,Wunderground v.1.15,2013-03-14 15:56:00,
2013-03-14 12:01:00,34.3,20.2,30.42,West,271,4.0,7.0,56,0.00,,,0.00,Wunderground v.1.15,2013-03-14 16:01:00,
2013-03-14 12:07:00,34.3,20.6,30.42,WSW,244,4.0,7.0,57,0.00,,,0.00,Wunderground v.1.15,2013-03-14 16:07:00,
2013-03-14 12:13:00,34.5,18.2,30.41,WNW,290,4.0,10.0,51,0.00,,,0.00,Wunderground v.1.15,2013-03-14 16:13:00,
2013-03-14 12:19:00,34.6,20.1,30.41,West,276,5.0,10.0,55,0.00,,,0.00,Wunderground v.1.15,2013-03-14 16:19:00,
2013-03-14 12:25:00,35.2,21.5,30.41,West,265,3.0,5.0,57,0.00,,,0.00,Wunderground v.1.15,2013-03-14 16:25:00,
2013-03-14 12:30:00,35.5,18.7,30.41,West,277,4.0,5.0,50,0.00,,,0.00,Wunderground v.1.15,2013-03-14 16:30:00,
2013-03-14 12:35:00,35.4,18.6,30.41,SW,232,5.0,8.0,50,0.00,,,0.00,Wunderground v.1.15,2013-03-14 16:35:00,
2013-03-14 12:41:00,35.8,19.4,30.40,WNW,295,3.0,3.0,51,0.00,,,0.00,Wunderground v.1.15,2013-03-14 16:41:00,
2013-03-14 12:46:00,35.8,19.9,30.40,NW,316,3.0,7.0,52,0.00,,,0.00,Wunderground v.1.15,2013-03-14 16:46:00,
2013-03-14 12:54:00,36.4,19.5,30.40,WSW,240,4.0,5.0,50,0.00,,,0.00,Wunderground v.1.15,2013-03-14 16:54:00,
2013-03-14 13:01:00,37.3,21.3,30.40,WSW,245,2.0,2.0,52,0.00,,,0.00,Wunderground v.1.15,2013-03-14 17:01:00,
2013-03-14 13:06:00,37.3,19.9,30.40,SW,226,3.0,6.0,49,0.00,,,0.00,Wunderground v.1.15,2013-03-14 17:06:00,
2013-03-14 13:12:00,37.1,18.2,30.40,West,259,5.0,10.0,46,0.00,,,0.00,Wunderground v.1.15,2013-03-14 17:12:00,
2013-03-14 13:18:00,36.8,18.9,30.39,SW,233,6.0,10.0,48,0.00,,,0.00,Wunderground v.1.15,2013-03-14 17:18:00,
2013-03-14 13:24:00,37.3,18.9,30.39,NW,308,5.0,5.0,47,0.00,,,0.00,Wunderground v.1.15,2013-03-14 17:24:00,
2013-03-14 13:29:00,37.7,19.3,30.39,WSW,243,4.0,7.0,47,0.00,,,0.00,Wunderground v.1.15,2013-03-14 17:29:00,
2013-03-14 13:34:00,38.5,21.0,30.39,WSW,245,4.0,5.0,49,0.00,,,0.00,Wunderground v.1.15,2013-03-14 17:34:00,
2013-03-14 13:40:00,38.0,18.5,30.38,SSE,156,4.0,7.0,45,0.00,,,0.00,Wunderground v.1.15,2013-03-14 17:40:00,
2013-03-14 13:46:00,38.5,17.4,30.38,WNW,284,4.0,6.0,42,0.00,,,0.00,Wunderground v.1.15,2013-03-14 17:46:00,
2013-03-14 13:51:00,38.8,19.8,30.38,SE,133,5.0,8.0,46,0.00,,,0.00,Wunderground v.1.15,2013-03-14 17:51:00,
2013-03-14 13:57:00,39.6,20.5,30.38,SSW,200,5.0,8.0,46,0.00,,,0.00,Wunderground v.1.15,2013-03-14 17:57:00,
2013-03-14 14:02:00,40.2,20.0,30.37,WSW,240,4.0,8.0,44,0.00,,,0.00,Wunderground v.1.15,2013-03-14 18:02:00,
2013-03-14 14:08:00,39.6,17.8,30.37,SW,233,5.0,8.0,41,0.00,,,0.00,Wunderground v.1.15,2013-03-14 18:08:00,
2013-03-14 14:14:00,39.5,19.4,30.37,WSW,238,5.0,7.0,44,0.00,,,0.00,Wunderground v.1.15,2013-03-14 18:14:00,
2013-03-14 14:20:00,40.0,19.8,30.36,West,266,4.0,4.0,44,0.00,,,0.00,Wunderground v.1.15,2013-03-14 18:20:00,
2013-03-14 14:26:00,40.6,19.8,30.36,West,278,4.0,6.0,43,0.00,,,0.00,Wunderground v.1.15,2013-03-14 18:26:00,
2013-03-14 14:32:00,40.8,18.9,30.35,West,262,4.0,7.0,41,0.00,,,0.00,Wunderground v.1.15,2013-03-14 18:32:00,
2013-03-14 14:37:00,41.1,21.3,30.35,WSW,255,4.0,12.0,45,0.00,,,0.00,Wunderground v.1.15,2013-03-14 18:37:00,
2013-03-14 14:43:00,41.1,18.6,30.35,SW,225,4.0,5.0,40,0.00,,,0.00,Wunderground v.1.15,2013-03-14 18:43:00,
2013-03-14 14:49:00,40.7,16.4,30.34,WNW,299,5.0,6.0,37,0.00,,,0.00,Wunderground v.1.15,2013-03-14 18:49:00,
2013-03-14 14:55:00,40.5,18.6,30.34,West,274,5.0,7.0,41,0.00,,,0.00,Wunderground v.1.15,2013-03-14 18:55:00,
2013-03-14 15:00:00,40.9,18.4,30.34,West,271,6.0,6.0,40,0.00,,,0.00,Wunderground v.1.15,2013-03-14 19:00:00,
2013-03-14 15:06:00,41.1,19.2,30.34,West,274,7.0,8.0,41,0.00,,,0.00,Wunderground v.1.15,2013-03-14 19:06:00,
2013-03-14 15:12:00,41.1,19.2,30.34,WSW,257,6.0,6.0,41,0.00,,,0.00,Wunderground v.1.15,2013-03-14 19:12:00,
2013-03-14 15:18:00,41.6,18.4,30.33,WSW,245,5.0,7.0,39,0.00,,,0.00,Wunderground v.1.15,2013-03-14 19:18:00,
2013-03-14 15:23:00,41.3,18.2,30.33,WNW,297,5.0,7.0,39,0.00,,,0.00,Wunderground v.1.15,2013-03-14 19:23:00,
2013-03-14 15:29:00,41.5,19.5,30.33,West,274,5.0,7.0,41,0.00,,,0.00,Wunderground v.1.15,2013-03-14 19:29:00,
2013-03-14 15:35:00,42.2,19.0,30.33,West,276,6.0,8.0,39,0.00,,,0.00,Wunderground v.1.15,2013-03-14 19:35:00,
2013-03-14 15:40:00,42.1,19.5,30.33,WNW,284,6.0,7.0,40,0.00,,,0.00,Wunderground v.1.15,2013-03-14 19:40:00,
2013-03-14 15:45:00,42.4,19.8,30.32,West,263,6.0,9.0,40,0.00,,,0.00,Wunderground v.1.15,2013-03-14 19:45:00,
2013-03-14 15:51:00,42.6,21.1,30.32,SW,229,6.0,6.0,42,0.00,,,0.00,Wunderground v.1.15,2013-03-14 19:51:00,
2013-03-14 15:56:00,43.2,22.2,30.32,WSW,243,4.0,6.0,43,0.00,,,0.00,Wunderground v.1.15,2013-03-14 19:56:00,
2013-03-14 16:02:00,42.9,21.4,30.31,West,270,4.0,8.0,42,0.00,,,0.00,Wunderground v.1.15,2013-03-14 20:02:00,
2013-03-14 16:07:00,43.2,21.6,30.31,WSW,256,5.0,8.0,42,0.00,,,0.00,Wunderground v.1.15,2013-03-14 20:07:00,
2013-03-14 16:12:00,43.0,19.1,30.31,WSW,252,6.0,9.0,38,0.00,,,0.00,Wunderground v.1.15,2013-03-14 20:12:00,
2013-03-14 16:17:00,42.8,19.5,30.31,West,263,6.0,9.0,39,0.00,,,0.00,Wunderground v.1.15,2013-03-14 20:17:00,
2013-03-14 16:23:00,43.7,20.3,30.31,WSW,245,4.0,9.0,39,0.00,,,0.00,Wunderground v.1.15,2013-03-14 20:23:00,
2013-03-14 16:30:00,43.3,20.0,30.30,WNW,299,4.0,4.0,39,0.00,,,0.00,Wunderground v.1.15,2013-03-14 20:30:00,
2013-03-14 16:35:00,43.4,19.5,30.30,WSW,245,5.0,7.0,38,0.00,,,0.00,Wunderground v.1.15,2013-03-14 20:35:00,
2013-03-14 16:41:00,43.2,19.3,30.31,WSW,256,5.0,6.0,38,0.00,,,0.00,Wunderground v.1.15,2013-03-14 20:41:00,
2013-03-14 16:47:00,43.2,19.3,30.30,WSW,249,5.0,7.0,38,0.00,,,0.00,Wunderground v.1.15,2013-03-14 20:47:00,
2013-03-14 16:53:00,43.2,19.9,30.30,SW,231,4.0,5.0,39,0.00,,,0.00,Wunderground v.1.15,2013-03-14 20:53:00,
2013-03-14 16:59:00,43.3,20.0,30.30,WSW,238,3.0,7.0,39,0.00,,,0.00,Wunderground v.1.15,2013-03-14 20:59:00,
2013-03-14 17:05:00,43.0,18.5,30.30,SW,235,3.0,4.0,37,0.00,,,0.00,Wunderground v.1.15,2013-03-14 21:05:00,
2013-03-14 17:12:00,43.3,20.0,30.30,West,279,4.0,5.0,39,0.00,,,0.00,Wunderground v.1.15,2013-03-14 21:12:00,
2013-03-14 17:18:00,43.7,22.1,30.30,West,260,4.0,6.0,42,0.00,,,0.00,Wunderground v.1.15,2013-03-14 21:18:00,
2013-03-14 17:23:00,43.8,22.2,30.29,WSW,249,4.0,7.0,42,0.00,,,0.00,Wunderground v.1.15,2013-03-14 21:23:00,
2013-03-14 17:29:00,44.1,21.3,30.29,West,262,5.0,7.0,40,0.00,,,0.00,Wunderground v.1.15,2013-03-14 21:29:00,
2013-03-14 17:35:00,43.8,21.0,30.28,NW,322,5.0,6.0,40,0.00,,,0.00,Wunderground v.1.15,2013-03-14 21:35:00,
2013-03-14 17:41:00,43.5,21.3,30.28,SW,235,4.0,6.0,41,0.00,,,0.00,Wunderground v.1.15,2013-03-14 21:41:00,
2013-03-14 17:47:00,43.1,21.0,30.28,WSW,243,3.0,6.0,41,0.00,,,0.00,Wunderground v.1.15,2013-03-14 21:47:00,
2013-03-14 17:53:00,42.9,21.4,30.29,WNW,286,5.0,8.0,42,0.00,,,0.00,Wunderground v.1.15,2013-03-14 21:53:00,
2013-03-14 17:58:00,42.7,20.6,30.28,ESE,117,4.0,8.0,41,0.00,,,0.00,Wunderground v.1.15,2013-03-14 21:58:00,
2013-03-14 18:04:00,42.6,19.3,30.28,WSW,238,4.0,7.0,39,0.00,,,0.00,Wunderground v.1.15,2013-03-14 22:04:00,
2013-03-14 18:10:00,42.7,20.0,30.28,WNW,283,4.0,5.0,40,0.00,,,0.00,Wunderground v.1.15,2013-03-14 22:10:00,
2013-03-14 18:15:00,42.7,18.8,30.28,WSW,243,5.0,8.0,38,0.00,,,0.00,Wunderground v.1.15,2013-03-14 22:15:00,
2013-03-14 18:20:00,42.5,19.8,30.28,West,278,6.0,6.0,40,0.00,,,0.00,Wunderground v.1.15,2013-03-14 22:20:00,
2013-03-14 18:26:00,42.5,20.4,30.28,WSW,239,4.0,6.0,41,0.00,,,0.00,Wunderground v.1.15,2013-03-14 22:26:00,
2013-03-14 18:32:00,42.4,19.8,30.28,WSW,242,3.0,4.0,40,0.00,,,0.00,Wunderground v.1.15,2013-03-14 22:32:00,
2013-03-14 18:37:00,42.4,20.9,30.28,WSW,242,4.0,5.0,42,0.00,,,0.00,Wunderground v.1.15,2013-03-14 22:37:00,
2013-03-14 18:43:00,42.3,19.7,30.28,WSW,254,4.0,5.0,40,0.00,,,0.00,Wunderground v.1.15,2013-03-14 22:43:00,
2013-03-14 18:49:00,42.2,21.3,30.28,West,263,3.0,5.0,43,0.00,,,0.00,Wunderground v.1.15,2013-03-14 22:49:00,
2013-03-14 18:55:00,42.4,19.8,30.28,SW,228,3.0,5.0,40,0.00,,,0.00,Wunderground v.1.15,2013-03-14 22:55:00,
2013-03-14 19:00:00,42.7,21.2,30.28,West,266,3.0,4.0,42,0.00,,,0.00,Wunderground v.1.15,2013-03-14 23:00:00,
2013-03-14 19:06:00,43.0,21.4,30.28,West,277,3.0,5.0,42,0.00,,,0.00,Wunderground v.1.15,2013-03-14 23:06:00,
2013-03-14 19:12:00,43.0,20.3,30.28,West,276,3.0,5.0,40,0.00,,,0.00,Wunderground v.1.15,2013-03-14 23:12:00,
2013-03-14 19:18:00,42.6,20.5,30.28,West,264,4.0,6.0,41,0.00,,,0.00,Wunderground v.1.15,2013-03-14 23:18:00,
2013-03-14 19:24:00,42.3,20.2,30.28,WNW,290,4.0,6.0,41,0.00,,,0.00,Wunderground v.1.15,2013-03-14 23:24:00,
2013-03-14 19:30:00,42.0,20.5,30.28,WSW,250,3.0,3.0,42,0.00,,,0.00,Wunderground v.1.15,2013-03-14 23:30:00,
2013-03-14 19:35:00,41.7,21.4,30.28,WSW,253,2.0,3.0,44,0.00,,,0.00,Wunderground v.1.15,2013-03-14 23:35:00,
2013-03-14 19:41:00,41.2,21.4,30.28,West,264,1.0,1.0,45,0.00,,,0.00,Wunderground v.1.15,2013-03-14 23:41:00,
2013-03-14 19:47:00,40.6,21.9,30.27,West,271,1.0,1.0,47,0.00,,,0.00,Wunderground v.1.15,2013-03-14 23:47:00,
2013-03-14 19:52:00,40.1,22.0,30.27,West,276,1.0,1.0,48,0.00,,,0.00,Wunderground v.1.15,2013-03-14 23:52:00,
2013-03-14 19:57:00,39.7,22.6,30.27,West,264,0.0,1.0,50,0.00,,,0.00,Wunderground v.1.15,2013-03-14 23:57:00,
2013-03-14 20:03:00,39.3,22.7,30.27,WSW,243,0.0,0.0,51,0.00,,,0.00,Wunderground v.1.15,2013-03-15 00:03:00,
2013-03-14 20:08:00,38.8,23.1,30.27,WSW,243,0.0,0.0,53,0.00,,,0.00,Wunderground v.1.15,2013-03-15 00:08:00,
2013-03-14 20:14:00,38.1,22.5,30.27,WSW,243,0.0,0.0,53,0.00,,,0.00,Wunderground v.1.15,2013-03-15 00:14:00,
2013-03-14 20:19:00,38.0,22.4,30.27,WSW,242,0.0,0.0,53,0.00,,,0.00,Wunderground v.1.15,2013-03-15 00:19:00,
2013-03-14 20:25:00,38.2,22.1,30.27,WSW,242,0.0,0.0,52,0.00,,,0.00,Wunderground v.1.15,2013-03-15 00:25:00,
2013-03-14 20:31:00,38.4,22.3,30.27,WSW,238,0.0,1.0,52,0.00,,,0.00,Wunderground v.1.15,2013-03-15 00:31:00,
2013-03-14 20:40:00,38.7,23.0,30.27,WSW,245,0.0,1.0,53,0.00,,,0.00,Wunderground v.1.15,2013-03-15 00:40:00,
2013-03-14 20:45:00,38.9,22.8,30.27,WSW,245,0.0,1.0,52,0.00,,,0.00,Wunderground v.1.15,2013-03-15 00:45:00,
2013-03-14 20:51:00,39.0,23.3,30.27,WSW,243,0.0,0.0,53,0.00,,,0.00,Wunderground v.1.15,2013-03-15 00:51:00,
2013-03-14 20:56:00,38.9,23.7,30.27,SW,236,0.0,1.0,54,0.00,,,0.00,Wunderground v.1.15,2013-03-15 00:56:00,
2013-03-14 21:02:00,38.8,24.0,30.27,SW,236,0.0,0.0,55,0.00,,,0.00,Wunderground v.1.15,2013-03-15 01:02:00,
2013-03-14 21:08:00,38.8,23.1,30.27,SW,235,0.0,1.0,53,0.00,,,0.00,Wunderground v.1.15,2013-03-15 01:08:00,
2013-03-14 21:13:00,38.8,23.1,30.27,SW,236,1.0,1.0,53,0.00,,,0.00,Wunderground v.1.15,2013-03-15 01:13:00,
2013-03-14 21:19:00,38.8,23.1,30.27,WSW,243,1.0,1.0,53,0.00,,,0.00,Wunderground v.1.15,2013-03-15 01:19:00,
2013-03-14 21:24:00,38.7,23.0,30.27,WSW,248,1.0,1.0,53,0.00,,,0.00,Wunderground v.1.15,2013-03-15 01:24:00,
2013-03-14 21:29:00,38.6,22.5,30.27,WSW,248,0.0,1.0,52,0.00,,,0.00,Wunderground v.1.15,2013-03-15 01:29:00,
2013-03-14 21:35:00,38.4,22.7,30.27,WSW,245,0.0,1.0,53,0.00,,,0.00,Wunderground v.1.15,2013-03-15 01:35:00,
2013-03-14 21:40:00,38.1,22.9,30.26,SW,226,0.0,0.0,54,0.00,,,0.00,Wunderground v.1.15,2013-03-15 01:40:00,
2013-03-14 21:46:00,37.7,23.4,30.27,WSW,244,0.0,0.0,56,0.00,,,0.00,Wunderground v.1.15,2013-03-15 01:46:00,
2013-03-14 21:51:00,37.5,22.8,30.26,WSW,249,0.0,0.0,55,0.00,,,0.00,Wunderground v.1.15,2013-03-15 01:51:00,
2013-03-14 21:57:00,37.4,23.1,30.26,WSW,245,0.0,1.0,56,0.00,,,0.00,Wunderground v.1.15,2013-03-15 01:57:00,
2013-03-14 22:02:00,37.6,23.3,30.27,WSW,248,0.0,2.0,56,0.00,,,0.00,Wunderground v.1.15,2013-03-15 02:02:00,
2013-03-14 22:08:00,37.7,23.0,30.27,WSW,242,1.0,2.0,55,0.00,,,0.00,Wunderground v.1.15,2013-03-15 02:08:00,
2013-03-14 22:14:00,37.8,22.2,30.27,West,268,1.0,2.0,53,0.00,,,0.00,Wunderground v.1.15,2013-03-15 02:14:00,
2013-03-14 22:19:00,38.1,22.5,30.27,WSW,242,2.0,3.0,53,0.00,,,0.00,Wunderground v.1.15,2013-03-15 02:19:00,
2013-03-14 22:25:00,38.6,22.9,30.27,West,262,3.0,6.0,53,0.00,,,0.00,Wunderground v.1.15,2013-03-15 02:25:00,
2013-03-14 22:30:00,39.1,24.3,30.27,WSW,248,6.0,8.0,55,0.00,,,0.00,Wunderground v.1.15,2013-03-15 02:30:00,
2013-03-14 22:36:00,39.2,25.2,30.27,WSW,242,7.0,8.0,57,0.00,,,0.00,Wunderground v.1.15,2013-03-15 02:36:00,
2013-03-14 22:41:00,39.2,25.6,30.27,WSW,256,5.0,6.0,58,0.00,,,0.00,Wunderground v.1.15,2013-03-15 02:41:00,
2013-03-14 22:47:00,39.2,26.5,30.27,WSW,248,5.0,9.0,60,0.00,,,0.00,Wunderground v.1.15,2013-03-15 02:47:00,
2013-03-14 22:53:00,39.1,26.8,30.28,WSW,243,4.0,6.0,61,0.00,,,0.00,Wunderground v.1.15,2013-03-15 02:53:00,
2013-03-14 22:59:00,39.0,27.1,30.28,WNW,295,4.0,6.0,62,0.00,,,0.00,Wunderground v.1.15,2013-03-15 02:59:00,
2013-03-14 23:05:00,38.9,27.8,30.28,West,273,4.0,5.0,64,0.00,,,0.00,Wunderground v.1.15,2013-03-15 03:05:00,
2013-03-14 23:10:00,38.8,28.0,30.28,West,274,5.0,7.0,65,0.00,,,0.00,Wunderground v.1.15,2013-03-15 03:10:00,
2013-03-14 23:16:00,38.7,28.3,30.28,West,263,5.0,7.0,66,0.00,,,0.00,Wunderground v.1.15,2013-03-15 03:16:00,
2013-03-14 23:22:00,38.6,28.6,30.28,West,267,4.0,6.0,67,0.00,,,0.00,Wunderground v.1.15,2013-03-15 03:22:00,
2013-03-14 23:28:00,38.5,28.9,30.28,West,266,5.0,7.0,68,0.00,,,0.00,Wunderground v.1.15,2013-03-15 03:28:00,
2013-03-14 23:33:00,38.5,28.9,30.28,West,271,6.0,8.0,68,0.00,,,0.00,Wunderground v.1.15,2013-03-15 03:33:00,
2013-03-14 23:38:00,38.4,28.8,30.27,West,267,6.0,8.0,68,0.00,,,0.00,Wunderground v.1.15,2013-03-15 03:38:00,
2013-03-14 23:44:00,38.3,29.0,30.27,West,259,4.0,5.0,69,0.00,,,0.00,Wunderground v.1.15,2013-03-15 03:44:00,
2013-03-14 23:50:00,38.2,28.9,30.27,West,280,4.0,4.0,69,0.00,,,0.00,Wunderground v.1.15,2013-03-15 03:50:00,
2013-03-14 23:55:00,38.1,29.2,30.26,West,279,3.0,5.0,70,0.00,,,0.00,Wunderground v.1.15,2013-03-15 03:55:00,